TimeEST,TemperatureF,Dew PointF,Humidity,Sea Level PressureIn,VisibilityMPH,Wind Direction,Wind SpeedMPH,Gust SpeedMPH,PrecipitationIn,Events,Conditions,WindDirDegrees,DateUTC
12:15 AM,26.8,23.5,88,30.46,10.0,Calm,Calm,-,N/A,,Clear,0,2012-11-14 05:15:00
12:35 AM,26.8,23.5,88,30.46,10.0,Calm,Calm,-,N/A,,Clear,0,2012-11-14 05:35:00
12:55 AM,27.5,22.1,80,30.46,10.0,NNE,4.6,-,N/A,,Clear,20,2012-11-14 05:55:00
1:15 AM,28.6,21.9,76,30.47,10.0,Calm,Calm,-,N/A,,Clear,0,2012-11-14 06:15:00
1:55 AM,26.4,22.1,84,30.47,10.0,Calm,Calm,-,N/A,,Clear,0,2012-11-14 06:55:00
2:15 AM,24.6,20.5,84,30.48,10.0,Calm,Calm,-,N/A,,Clear,0,2012-11-14 07:15:00
2:35 AM,28.4,20.1,71,30.48,10.0,North,5.8,-,N/A,,Clear,350,2012-11-14 07:35:00
2:55 AM,27.3,19.6,73,30.48,10.0,Calm,Calm,-,N/A,,Clear,0,2012-11-14 07:55:00
3:15 AM,23.9,21.0,89,30.48,10.0,Calm,Calm,-,N/A,,Clear,0,2012-11-14 08:15:00
3:35 AM,24.8,22.1,89,30.48,10.0,Calm,Calm,-,N/A,,Clear,0,2012-11-14 08:35:00
3:55 AM,25.5,21.7,86,30.49,10.0,Calm,Calm,-,N/A,,Clear,0,2012-11-14 08:55:00
4:15 AM,24.6,21.0,86,30.50,10.0,Calm,Calm,-,N/A,,Clear,0,2012-11-14 09:15:00
4:35 AM,24.8,21.6,87,30.50,10.0,Calm,Calm,-,N/A,,Clear,0,2012-11-14 09:35:00
4:55 AM,24.3,20.8,87,30.51,10.0,Calm,Calm,-,N/A,,Clear,0,2012-11-14 09:55:00
5:15 AM,22.6,19.4,87,30.52,10.0,Calm,Calm,-,N/A,,Clear,0,2012-11-14 10:15:00
5:35 AM,22.1,19.4,89,30.52,10.0,Calm,Calm,-,N/A,,Clear,0,2012-11-14 10:35:00
5:55 AM,22.8,20.1,89,30.52,10.0,Calm,Calm,-,N/A,,Clear,0,2012-11-14 10:55:00
6:15 AM,22.6,20.1,90,30.54,10.0,Calm,Calm,-,N/A,,Clear,0,2012-11-14 11:15:00
6:35 AM,23.5,21.0,90,30.55,10.0,Calm,Calm,-,N/A,,Clear,0,2012-11-14 11:35:00
6:55 AM,23.7,20.8,89,30.55,10.0,Calm,Calm,-,N/A,,Clear,0,2012-11-14 11:55:00
7:15 AM,23.0,19.9,88,30.55,10.0,East,3.5,-,N/A,,Clear,90,2012-11-14 12:15:00
7:35 AM,23.9,21.0,89,30.56,10.0,Calm,Calm,-,N/A,,Clear,0,2012-11-14 12:35:00
7:55 AM,25.5,21.9,86,30.56,10.0,Calm,Calm,-,N/A,,Clear,0,2012-11-14 12:55:00
8:15 AM,26.8,22.6,84,30.57,10.0,Calm,Calm,-,N/A,,Clear,0,2012-11-14 13:15:00
8:35 AM,28.6,22.6,78,30.57,10.0,Calm,Calm,-,N/A,,Clear,0,2012-11-14 13:35:00
8:55 AM,30.6,24.6,79,30.57,10.0,Calm,Calm,-,N/A,,Clear,0,2012-11-14 13:55:00
9:15 AM,31.1,25.2,79,30.58,10.0,Calm,Calm,-,N/A,,Clear,0,2012-11-14 14:15:00
9:35 AM,32.4,25.2,75,30.57,10.0,Calm,Calm,-,N/A,,Clear,0,2012-11-14 14:35:00
9:55 AM,33.8,24.4,69,30.57,10.0,East,3.5,-,N/A,,Clear,80,2012-11-14 14:55:00
10:15 AM,34.7,20.5,56,30.57,10.0,Calm,Calm,-,N/A,,Clear,0,2012-11-14 15:15:00
10:35 AM,35.1,19.9,54,30.57,10.0,Calm,Calm,-,N/A,,Clear,0,2012-11-14 15:35:00
10:55 AM,35.8,19.0,51,30.56,10.0,Calm,Calm,-,N/A,,Clear,0,2012-11-14 15:55:00
11:15 AM,36.9,16.7,44,30.56,10.0,NNE,6.9,-,N/A,,Clear,30,2012-11-14 16:15:00
11:35 AM,37.6,17.6,44,30.55,10.0,North,5.8,-,N/A,,Clear,360,2012-11-14 16:35:00
11:55 AM,37.8,18.7,46,30.55,10.0,North,6.9,-,N/A,,Clear,360,2012-11-14 16:55:00
12:15 PM,37.8,18.1,45,30.53,10.0,North,8.1,-,N/A,,Clear,350,2012-11-14 17:15:00
12:35 PM,38.3,18.0,44,30.53,10.0,NW,9.2,-,N/A,,Clear,320,2012-11-14 17:35:00
12:55 PM,38.7,18.3,44,30.53,10.0,North,9.2,-,N/A,,Clear,350,2012-11-14 17:55:00
1:15 PM,38.7,17.4,42,30.52,10.0,NNW,6.9,-,N/A,,Clear,330,2012-11-14 18:15:00
1:35 PM,38.7,17.6,43,30.52,10.0,North,8.1,-,N/A,,Clear,350,2012-11-14 18:35:00
1:55 PM,38.5,17.4,43,30.52,10.0,NNW,6.9,-,N/A,,Clear,330,2012-11-14 18:55:00
2:15 PM,38.1,17.2,43,30.51,10.0,NNW,9.2,-,N/A,,Clear,340,2012-11-14 19:15:00
2:35 PM,38.1,18.5,45,30.52,10.0,NNW,9.2,-,N/A,,Clear,340,2012-11-14 19:35:00
2:55 PM,37.4,18.1,46,30.52,10.0,North,8.1,-,N/A,,Clear,350,2012-11-14 19:55:00
3:15 PM,36.9,18.5,47,30.52,10.0,NNW,5.8,-,N/A,,Clear,340,2012-11-14 20:15:00
3:55 PM,35.1,19.4,53,30.53,10.0,NNW,4.6,-,N/A,,Clear,340,2012-11-14 20:55:00
4:15 PM,33.4,19.0,56,30.53,10.0,NNW,5.8,-,N/A,,Clear,330,2012-11-14 21:15:00
4:35 PM,32.4,18.5,57,30.53,10.0,North,4.6,-,N/A,,Clear,350,2012-11-14 21:35:00
4:55 PM,32.4,18.3,56,30.52,10.0,North,5.8,-,N/A,,Clear,360,2012-11-14 21:55:00
5:15 PM,31.5,18.5,59,30.53,10.0,North,6.9,-,N/A,,Clear,360,2012-11-14 22:15:00
5:35 PM,30.2,18.9,63,30.53,10.0,North,6.9,-,N/A,,Clear,10,2012-11-14 22:35:00
5:55 PM,31.1,19.0,61,30.54,10.0,North,4.6,-,N/A,,Clear,350,2012-11-14 22:55:00
6:15 PM,30.7,18.7,61,30.54,10.0,North,6.9,-,N/A,,Clear,360,2012-11-14 23:15:00
6:35 PM,30.6,18.5,61,30.55,10.0,North,3.5,-,N/A,,Clear,360,2012-11-14 23:35:00
6:55 PM,28.8,18.3,65,30.53,10.0,North,5.8,-,N/A,,Clear,10,2012-11-14 23:55:00
7:15 PM,30.0,18.7,63,30.54,10.0,North,4.6,-,N/A,,Clear,10,2012-11-15 00:15:00
7:35 PM,29.5,18.5,64,30.53,10.0,NNE,5.8,-,N/A,,Clear,20,2012-11-15 00:35:00
7:55 PM,28.9,18.5,65,30.53,10.0,North,5.8,-,N/A,,Clear,10,2012-11-15 00:55:00
8:15 PM,28.2,18.5,67,30.54,10.0,North,5.8,-,N/A,,Clear,10,2012-11-15 01:15:00
8:35 PM,28.0,18.7,68,30.54,10.0,North,6.9,-,N/A,,Clear,360,2012-11-15 01:35:00
8:55 PM,29.1,18.5,65,30.54,10.0,North,5.8,-,N/A,,Clear,360,2012-11-15 01:55:00
9:15 PM,27.9,18.5,68,30.53,10.0,North,4.6,-,N/A,,Clear,360,2012-11-15 02:15:00
9:35 PM,28.6,18.1,65,30.52,10.0,North,4.6,-,N/A,,Clear,360,2012-11-15 02:35:00
9:55 PM,28.2,18.5,67,30.52,10.0,North,4.6,-,N/A,,Clear,360,2012-11-15 02:55:00
10:15 PM,27.9,18.5,68,30.52,10.0,North,3.5,-,N/A,,Clear,10,2012-11-15 03:15:00
10:35 PM,28.2,18.5,67,30.51,10.0,Calm,Calm,-,N/A,,Clear,0,2012-11-15 03:35:00
10:55 PM,28.2,18.5,67,30.51,10.0,Calm,Calm,-,N/A,,Clear,0,2012-11-15 03:55:00
11:15 PM,27.0,19.4,73,30.51,10.0,Calm,Calm,-,N/A,,Clear,0,2012-11-15 04:15:00
11:35 PM,26.4,18.9,73,30.50,10.0,Calm,Calm,-,N/A,,Clear,0,2012-11-15 04:35:00
11:55 PM,25.3,18.5,75,30.50,10.0,Calm,Calm,-,N/A,,Clear,0,2012-11-15 04:55:00